This is the latest recevied weather packets stored in our database for station/object SP6W-10. If no packets are shown the sender has not sent any weather packets the latest 10 day(s).
| Time | Temp. | Humidity | Pressure | Rain* | Wind** | Luminosity | Snow |
|---|---|---|---|---|---|---|---|
| 1777349570 | 24.44° C | 20% | 1024.3 hPa | - | - | - | - |
| 1777347770 | 24.44° C | 20% | 1024 hPa | - | - | - | - |
| 1777345970 | 25° C | 21% | 1024 hPa | - | - | - | - |
| 1777344171 | 25° C | 21% | 1023.8 hPa | - | - | - | - |
| 1777342370 | 25° C | 20% | 1023.5 hPa | - | - | - | - |
| 1777340570 | 25.56° C | 20% | 1023.1 hPa | - | - | - | - |
| 1777338771 | 25.56° C | 20% | 1022.8 hPa | - | - | - | - |
| 1777336970 | 25.56° C | 20% | 1022.5 hPa | - | - | - | - |
| 1777335170 | 26.11° C | 20% | 1022.1 hPa | - | - | - | - |
| 1777333371 | 26.11° C | 20% | 1021.9 hPa | - | - | - | - |
| 1777331570 | 26.11° C | 20% | 1021.8 hPa | - | - | - | - |
| 1777329771 | 26.67° C | 20% | 1021.8 hPa | - | - | - | - |
| 1777327970 | 26.67° C | 20% | 1021.8 hPa | - | - | - | - |
| 1777326170 | 26.67° C | 20% | 1021.8 hPa | - | - | - | - |
| 1777324371 | 26.67° C | 20% | 1021.7 hPa | - | - | - | - |
| 1777322570 | 27.22° C | 20% | 1021.7 hPa | - | - | - | - |
| 1777320770 | 27.22° C | 19% | 1021.8 hPa | - | - | - | - |
| 1777318970 | 26.11° C | 19% | 1021.8 hPa | - | - | - | - |
| 1777317170 | 26.11° C | 19% | 1021.7 hPa | - | - | - | - |
| 1777315370 | 26.67° C | 18% | 1021.7 hPa | - | - | - | - |
| 1777313570 | 27.22° C | 19% | 1021.6 hPa | - | - | - | - |
| 1777311770 | 27.22° C | 18% | 1021.5 hPa | - | - | - | - |
| 1777309972 | 27.78° C | 17% | 1021.5 hPa | - | - | - | - |
| 1777308170 | 27.78° C | 17% | 1021.6 hPa | - | - | - | - |
| 1777306370 | 28.33° C | 17% | 1021.6 hPa | - | - | - | - |
* Rain since midnight (hover to see other rain measurements)
** Current wind speed in m/s (hover to see current wind gust speed)